Regional Weather Roundup
Issued by NWS

Home | Current Version | Previous Version | Graphics & Text | Print | Product List | Glossary On
Versions: 1 2 3 4 5 6 7 8 9 10 11 12 13 14 15 16 17 18 19 20 21 22 23 24 25 26 27 28 29 30 31 32 33 34 35 36 37 38 39 40 41 42 43 44 45 46 47 48 49 50
000
ASUS43 KFSD 301702
RWRSD

WEATHER ROUNDUP FOR SOUTH DAKOTA
NATIONAL WEATHER SERVICE SIOUX FALLS SD
1200 PM CDT SAT APR 30 2016

NOTE: "FAIR" INDICATES FEW OR NO CLOUDS BELOW 12,000 FEET WITH NO
SIGNIFICANT WEATHER AND/OR OBSTRUCTIONS TO VISIBILITY.


SDZ001>005-009-010-012>017-301800-
NORTHWEST AND NORTH CENTRAL SOUTH DAKOTA

CITY           SKY/WX    TMP DP  RH WIND       PRES   REMARKS
BUFFALO          N/A     50  35  56 NE15      30.09R
FAITH            N/A     51  36  56 NE17      30.11S
MOBRIDGE       MOSUNNY   55  36  48 NE20G30   30.11S
$$

SDZ012>016-024>037-041>051-057-063-072>074-301800-
SOUTHWEST AND SOUTH CENTRAL SOUTH DAKOTA

CITY           SKY/WX    TMP DP  RH WIND       PRES   REMARKS
RAPID CTY ARPT CLOUDY    45  36  70 NE17      30.09S
PIERRE         CLOUDY    50  36  58 NE23G31   30.03F
CUSTER         CLOUDY    32  29  88 NE16G30   30.03S WCI  21
ELLSWORTH AFB  CLOUDY    45  36  70 NE15      30.09
PHILIP         CLOUDY    50  37  61 NE18      30.05S
PINE RIDGE     LGT RAIN  40  36  86 N20G35    29.99S
WINNER         LGT RAIN  45  40  82 N17       29.95F
$$

SDZ004>011-016>023-039-040-301800-
NORTHEAST SOUTH DAKOTA

CITY           SKY/WX    TMP DP  RH WIND       PRES   REMARKS
ABERDEEN       CLOUDY    54  32  43 NE21G36   30.11S
WATERTOWN      CLOUDY    47  36  65 NE20G28   30.05R
BROOKINGS      PTSUNNY   44  36  73 NE17G26   29.99S
SISSETON         N/A     53  34  48 E23       30.10R
$$

SDZ017-020-022-023-036>040-048>070-301800-
SOUTHEAST SOUTH DAKOTA

CITY           SKY/WX    TMP DP  RH WIND       PRES   REMARKS
SIOUX FALLS    RAIN      42  39  89 NE18G32   29.93F FOG
HURON          CLOUDY    50  38  63 NE21G28   30.02S
MITCHELL       LGT RAIN  44  38  79 NE21      29.98S
YANKTON        CLOUDY    43  39  87 NE25G35   29.82F
$$

ABBREVIATIONS USED IN REMARKS
   TC - TEMPERATURE IN CELSIUS
  WCI - WIND CHILL INDEX
   HX - HEAT INDEX
  VSB - VISIBILITY





USA.gov is the U.S. government's official web portal to all federal, state and local government web resources and services.